Hourly Data Report for October 06, 2017

All times are specified in Local Standard Time (LST). Add 1 hour to adjust for Daylight Saving Time where and when it is observed.

GRAND RAPIDS (AUT)
MANITOBA

53°11'11.064" N
99°16'04.098" W
222.50 m
5031A10
71858
WJD

Download Data

Hourly Data (October 2017)
Hourly Data Report for October 6, 2017
Temp Definition
°C
Dew Point Temp Definition
°C
Rel Hum Definition
%
Wind Dir Definition
10's deg

Wind Spd Definition
km/h
Visibility Definition
km
Stn Press Definition
kPa
Hmdx Definition


Wind Chill Definition


Weather Definition


TIME
00:00 7.5 4.1 79 23 10   98.31     LegendNANA
01:00 7.7 3.4 74 23 11   98.24     LegendNANA
02:00 7.8 2.9 71 24 11   98.20     LegendNANA
03:00 7.5 3.6 77 22 12   98.14     LegendNANA
04:00 7.5 3.6 77 23 10   98.06     LegendNANA
05:00 7.9 3.5 74 23 14   97.98     LegendNANA
06:00 7.4 3.6 76 23 14   97.89     LegendNANA
07:00 7.3 3.4 77 23 14   97.81     LegendNANA
08:00 8.7 4.3 74 22 14   97.71     LegendNANA
09:00 11.1 4.6 64 22 17   97.64     LegendNANA
10:00 14.0 4.6 53 22 19   97.53     LegendNANA
11:00 16.4 4.7 46 21 18   97.43     LegendNANA
12:00 17.3 3.7 40 23 18   97.39     LegendNANA
13:00 17.3 2.9 38 22 22   97.27     LegendNANA
14:00 17.8 3.5 39 22 21   97.17     LegendNANA
15:00 17.9 3.2 38 22 19   97.07     LegendNANA
16:00 17.7 3.0 37 22 17   96.96     LegendNANA
17:00 16.6 2.6 39 22 16   96.89     LegendNANA
18:00 14.4 3.2 47 22 14   96.81     LegendNANA
19:00 12.6 2.9 51 22 12   96.75     LegendNANA
20:00 11.4 2.0 52 19 8   96.66     LegendNANA
21:00 11.2 2.3 54 19 8   96.53     LegendNANA
22:00 11.2 2.9 56 20 7   96.43     LegendNANA
23:00 11.9 3.5 56 20 11   96.30     LegendNANA

Notes on Data Quality.

Legend

  • E = Estimated
  • M = Missing
  • NA = Not Available
  • ‡ = Partner data that is not subject to review by the National Climate Archives
Date modified: